一网星座-0146星 (ONEWEB-0146 )

导读

ONEWEB-0146是英国OneWeb星座下的低轨宽带通信卫星,于2020年12月18日发射入轨。该卫星属于OneWeb一期星座,单星重约147.5公斤,设计寿命5年,配备Ku/Ka波段天线,单星通信能力约7.5Gbps,可提供最高50Mbps下载速率。它服务于OneWeb的全球互联网覆盖目标,为偏远地区等提供卫星宽带接入服务,是OneWeb近地轨道星座组网的重要组成部分。

基本信息
目录编号:
47292
目录名称:
ONEWEB-0146
国际标识:
2020-100AL
轨道中心:
EARTH
卫星名称:
一网星座-0146星
卫星全名:
一网星座-0146星 (ONEWEB-0146 )
卫星状态:
在轨 (已飞行2097 天)
发射日期:
2020-12-18 UTC
国别 :
英国 (GB)
星等 :
--
该卫星已列入 空间交会检测服务 Space Conjunction Data Service (SCDS) ,当前飞行风险评估等级: 无高风险
轨道信息
数据来源 国际轨道数据
星历时间: 2026-09-15T00:24:44+0800
1天前
查看轨道信息
半长轴: 7591.867km
偏心率: 0.0002247
轨道倾角: 87.899°
近地点辐角 98.409°
升交点赤经 332.897°
平近点角 261.729°
近地点: 1212.024km
远地点: 1215.436km
周期: 109.719分钟
每日圈数: 13.124413
详细信息
平衡模式:
三轴稳定
覆盖范围:
全球
运营商:
一网卫星公司
运营商所在国:
英国
制造商(研发单位):
一网卫星公司
制造商所在国:
英国
使用方式:
暂无
卫星简介
OneWeb卫星网络由648颗重约125公斤的微型卫星组成,运行在1200公里的轨道上。 每颗卫星都能够提供至少每秒8千兆位的吞吐量,以使用其高吞吐量的Ku频段有效载荷为家庭和移动平台提供互联网接入。该卫星仍在工作。
2D轨道图
3D轨道图
轨道高度分析图
轨道倾角分析图
轨道综合分析图
查看轨道综合分析图
与全量物体交会距离演化趋势 订阅飞行安全评估服务
与全量物体交会风险概率演化趋势 订阅飞行安全评估服务